Location: Newark
(34.6283°N, 36.0776°E)
Time: 11:26:41
(UTC+00:00)

S-56A Canister/Altair - Pass Details

Date: 23 October 2019
Orbit: 634 x 2498 km, 38.9° (Epoch: 19 November)

Event Time Altitude Azimuth Distance (km) Brightness Sun altitude
Rises 06:44:47 0° 283° (WNW) 4,894 11.2 31.1°
Reaches altitude 10° 06:48:22 10° 272° (W) 4,174 11.0 31.7°
Maximum altitude 06:57:27 27° 220° (SW) 3,522 11.2 33.0°
Drops below altitude 10° 07:08:31 10° 171° (S) 5,099 12.7 34.5°
Sets 07:13:36 0° 160° (SSE) 6,162 13.0 35.1°
